Regional Weather Roundup
Issued by NWS Charleston, SC

Current Version | Previous Version | Graphics & Text | Print | Product List | Glossary On
Versions: 1 2 3 4 5 6 7 8 9 10 11 12 13 14 15 16 17 18 19 20 21 22 23 24 25 26 27 28 29 30 31 32 33 34 35 36 37 38 39 40 41 42 43 44 45 46 47 48 49 50
000 ASUS42 KCHS 230510 RWRCHS REGIONAL WEATHER ROUNDUP NATIONAL WEATHER SERVICE CHARLESTON SC 100 AM EDT THU OCT 23 2014 NOTE: "FAIR" INDICATES FEW OR NO CLOUDS BELOW 12,000 FEET WITH NO SIGNIFICANT WEATHER AND/OR OBSTRUCTIONS TO VISIBILITY. NOT ALL STATIONS ARE QUALITY CONTROLLED BY THE NATIONAL WEATHER SERVICE. USE DATA WITH CAUTION...ESPECIALLY DEWPOINT OBSERVATIONS. SCZ027-030-031-034>040-042>050-230600- ...SOUTH CAROLINA... CITY SKY/WX TMP DP RH WIND PRES REMARKS N CHARLESTON CLEAR 54 45 71 N8 30.07S WATERFRONT PRK N/A 57 N/A N/A N15G21 N/A FORT JOHNSON NOT AVBL JOHNS ISLAND CLEAR 54 48 82 N8 30.07R PINOPOLIS NOT AVBL MONCKS CORNER FAIR 59 48 67 N7G18 30.08S SUMMERVILLE FAIR 46 46 100 N3 30.09S BEAUFORT MCAS CLEAR 56 47 71 N10 30.06F BEAUFORT ARPT FAIR 55 46 71 NW7 30.05F HILTON HEAD IS NOT AVBL GEORGETOWN NOT AVBL WALTERBORO CLEAR 52 48 87 N6 30.09S ORANGEBURG CLEAR 51 43 74 N5 30.10S BARNWELL FAIR 50 43 76 N5 30.10S AIKEN FAIR 50 43 76 N7 30.13S MANNING FAIR 52 45 76 CALM 30.08F KINGSTREE NOT AVBL COLUMBIA CLEAR 53 40 61 N3 30.10S SUMTER CLEAR 51 43 73 VRB3 30.08S FLORENCE CLEAR 52 40 63 NW9 30.07S MYRTLE BEACH CLEAR 54 43 66 NW7 30.05S N MYRTLE BEACH CLEAR 52 44 74 NW6 30.04S $$ GAZ063-065-086>088-099>101-113>116-118-119-134-136>141-150-230600- ...GEORGIA... CITY SKY/WX TMP DP RH WIND PRES REMARKS SAVANNAH ARPT CLEAR 53 46 77 CALM 30.07F HUNTER AAF CLEAR 51 46 84 NW1 30.04F FORT STEWART CLEAR 47 44 90 CALM 30.06S STATESBORO NOT AVBL SYLVANIA CLEAR 52 52 97 NE7 30.09S CLAXTON FAIR 45 45 100 CALM 30.08S THOMSON CLEAR 44 44 100 CALM 30.15S AUGUSTA-BUSH CLEAR 43 40 89 CALM 30.10F AUGUSTA-DANIEL CLEAR 53 42 66 N6 30.11S SWAINSBORO FAIR 45 45 100 MISG 30.09F VIDALIA CLEAR 50 45 81 N3 30.08F ALMA CLEAR 46 44 93 CALM 30.07F WAYCROSS CLEAR 51 49 93 CALM 30.07S JESUP FAIR 46 45 93 CALM 30.08S BRUNSWICK CLEAR 50 46 87 CALM 30.07F SAINT SIMONS CLEAR 53 50 89 CALM 30.06F $$ SCZ027-028-034-036>038-045-046-048>050-GAZ119-141-230600- ...LAKE AND SUPPLEMENTAL COASTAL OBSERVATIONS... STATION/POSITION TIME TEMP WIND PRES WAVE SWELL AIR SEA DIR/SP/G HT/PER HT/PER/DIR (UTC) (F) (DEG/KT/KT) (MB) (FT/S) (FT/S/D) UPR LAKE MARION NOT AVBL WINYAH BAY 0400 55 330/ 6 1017.0S LAKE MURRAY 0400 53 330/ 2/ 6 1019.0S ACE BASIN NERRS 0400 53 CALM 1018.0S FORT PULASKI 0500 60 330/ 6/ 8 1018.1F SAPELO ISLAND NOT AVBL $$ ANZ835-935-AMZ111-154-330-350-352-354-374-450-454-472-230600- ...C-MAN AND BUOY OBSERVATIONS... STATION/POSITION TIME TEMP WIND PRES WAVE SWELL AIR SEA DIR/SP/G HT/PER HT/PER/DIR (UTC) (F) (DEG/KT/KT) (MB) (FT/S) (FT/S/D) FOLLY BEACH CMAN 0400 56 290/ 4/ 6 1018.3F BUOY 41004 0500 67 78 350/ 16/ 21 1016.1F 3/ 5 2/10 BUOY 41008 0500 67 75 10/ 14/ 17 1017.7F 2/ 5 2/130/ 9 5E ST. MARYS GA 0500 76 N/A 3/ 6 FRYING PAN BUOY 0500 64 74 340/ 17/ 19 1016.6F 4/ 5 2/130/10 BUOY 41025 0500 60 300/ 21/ 27 1012.2R 6/ 5 2/ 30/ 9 CAPE LOOKOUT NC 0400 59 320/ 16/ 19 1014.6F BUOY 41002 0358 70 78 330/ 19/ 23 1013.8 7/ 7 2/ 70/10 BUOY 41010 0500 74 81 10/ 10/ 12 1015.1S 4/ 6 3/350/ 6 BUOY 41012 NOT AVBL ST AUGUSTINE FL 0500 69 20/ 12/ 14 1017.1F CAPERS NEARSHORE NOT AVBL FRIPP NEARSHORE NOT AVBL $$

USA.gov is the U.S. government's official web portal to all federal, state and local government web resources and services.